User: anonymous   Login
Location: Unspecified
(0.0000°N, 0.0000°E)
Time: 17:24:16
(UTC+00:00)
Language:

DSP F18 - Orbit

View from above orbital plane
View from above orbital plane
View from above satellite
View from above satellite

Ground track
Ground track

The orbit data is extracted from the following two-line orbital elements,

1 24737U 97008A   19322.35326992  .00000033  00000-0  00000+0 0  9998
2 24737  13.4599  21.5931 0000375 342.6990 188.1224  1.00263316  7516
Epoch (UTC): 18 November 2019 08:28:42
Eccentricity: 0.0000375
inclination: 13.4599°
perigee height: 35787 km
apogee height: 35790 km
right ascension of ascending node: 21.5931°
argument of perigee: 342.6990°
revolutions per day: 1.00263316
mean anomaly at epoch: 188.1224°
orbit number at epoch: 751

The dashed part of the orbit path shows where the satellite is in the earth's shadow,  

DLR